Year,Month,Day,Hour,Minute,Value (Times are PST for temperature in C)
2017,05,29,00,00,16.80
2017,05,29,00,01,16.80
2017,05,29,00,02,16.70
2017,05,29,00,03,16.70
2017,05,29,00,04,16.70
2017,05,29,00,05,16.60
2017,05,29,00,06,16.60
2017,05,29,00,07,16.60
2017,05,29,00,08,16.50
2017,05,29,00,09,16.50
2017,05,29,00,10,16.40
2017,05,29,00,11,16.40
2017,05,29,00,12,16.40
2017,05,29,00,13,16.30
2017,05,29,00,14,16.30
2017,05,29,00,15,16.20
2017,05,29,00,16,16.20
2017,05,29,00,17,16.10
2017,05,29,00,18,16.10
2017,05,29,00,19,16.00
2017,05,29,00,20,16.00
2017,05,29,00,21,15.90
2017,05,29,00,22,15.90
2017,05,29,00,23,15.90
2017,05,29,00,24,15.90
2017,05,29,00,25,15.80
2017,05,29,00,26,15.80
2017,05,29,00,27,15.80
2017,05,29,00,28,15.70
2017,05,29,00,29,15.70
2017,05,29,00,30,15.70
2017,05,29,00,31,15.60
2017,05,29,00,32,15.60
2017,05,29,00,33,15.50
2017,05,29,00,34,15.50
2017,05,29,00,35,15.50
2017,05,29,00,36,15.50
2017,05,29,00,37,15.40
2017,05,29,00,38,15.40
2017,05,29,00,39,15.40
2017,05,29,00,40,15.40
2017,05,29,00,41,15.40
2017,05,29,00,42,15.40
2017,05,29,00,43,15.30
2017,05,29,00,44,15.30
2017,05,29,00,45,15.30
2017,05,29,00,46,15.30
2017,05,29,00,47,15.30
2017,05,29,00,48,15.30
2017,05,29,00,49,15.30
2017,05,29,00,50,15.20
2017,05,29,00,51,15.20
2017,05,29,00,52,15.20
2017,05,29,00,53,15.20
2017,05,29,00,54,15.20
2017,05,29,00,55,15.20
2017,05,29,00,56,15.20
2017,05,29,00,57,15.10
2017,05,29,00,58,15.10
2017,05,29,00,59,15.00
2017,05,29,01,00,15.00
2017,05,29,01,01,15.00
2017,05,29,01,02,15.00
2017,05,29,01,03,15.00
2017,05,29,01,04,15.00
2017,05,29,01,05,15.00
2017,05,29,01,06,15.00
2017,05,29,01,07,15.10
2017,05,29,01,08,15.20
2017,05,29,01,09,15.20
2017,05,29,01,10,15.30
2017,05,29,01,11,15.30
2017,05,29,01,12,15.40
2017,05,29,01,13,15.40
2017,05,29,01,14,15.40
2017,05,29,01,15,15.50
2017,05,29,01,16,15.50
2017,05,29,01,17,15.60
2017,05,29,01,18,15.60
2017,05,29,01,19,15.60
2017,05,29,01,20,15.70
2017,05,29,01,21,15.70
2017,05,29,01,22,15.70
2017,05,29,01,23,15.80
2017,05,29,01,24,15.80
2017,05,29,01,25,15.80
2017,05,29,01,26,15.80
2017,05,29,01,27,15.80
2017,05,29,01,28,15.80
2017,05,29,01,29,15.80
2017,05,29,01,30,15.80
2017,05,29,01,31,15.80
2017,05,29,01,32,15.70
2017,05,29,01,33,15.70
2017,05,29,01,34,15.60
2017,05,29,01,35,15.50
2017,05,29,01,36,15.50
2017,05,29,01,37,15.40
2017,05,29,01,38,15.30
2017,05,29,01,39,15.20
2017,05,29,01,40,15.10
2017,05,29,01,41,15.00
2017,05,29,01,42,15.00
2017,05,29,01,43,15.00
2017,05,29,01,44,14.90
2017,05,29,01,45,14.80
2017,05,29,01,46,14.80
2017,05,29,01,47,14.70
2017,05,29,01,48,14.70
2017,05,29,01,49,14.60
2017,05,29,01,50,14.60
2017,05,29,01,51,14.50
2017,05,29,01,52,14.50
2017,05,29,01,53,14.40
2017,05,29,01,54,14.40
2017,05,29,01,55,14.40
2017,05,29,01,56,14.40
2017,05,29,01,57,14.30
2017,05,29,01,58,14.30
2017,05,29,01,59,14.30
2017,05,29,02,00,14.30
2017,05,29,02,01,14.30
2017,05,29,02,02,14.30
2017,05,29,02,03,14.30
2017,05,29,02,04,14.30
2017,05,29,02,05,14.30
2017,05,29,02,06,14.30
2017,05,29,02,07,14.30
2017,05,29,02,08,14.30
2017,05,29,02,09,14.20
2017,05,29,02,10,14.20
2017,05,29,02,11,14.20
2017,05,29,02,12,14.10
2017,05,29,02,13,14.10
2017,05,29,02,14,14.10
2017,05,29,02,15,14.00
2017,05,29,02,16,14.00
2017,05,29,02,17,14.00
2017,05,29,02,18,13.90
2017,05,29,02,19,13.90
2017,05,29,02,20,13.80
2017,05,29,02,21,13.80
2017,05,29,02,22,13.80
2017,05,29,02,23,13.70
2017,05,29,02,24,13.70
2017,05,29,02,25,13.80
2017,05,29,02,26,13.80
2017,05,29,02,27,13.80
2017,05,29,02,28,13.80
2017,05,29,02,29,13.90
2017,05,29,02,30,13.90
2017,05,29,02,31,13.90
2017,05,29,02,32,13.90
2017,05,29,02,33,13.90
2017,05,29,02,34,13.90
2017,05,29,02,35,13.90
2017,05,29,02,36,13.90
2017,05,29,02,37,13.90
2017,05,29,02,38,14.00
2017,05,29,02,39,14.00
2017,05,29,02,40,14.00
2017,05,29,02,41,14.00
2017,05,29,02,42,13.90
2017,05,29,02,43,13.90
2017,05,29,02,44,13.90
2017,05,29,02,45,13.90
2017,05,29,02,46,13.90
2017,05,29,02,47,13.90
2017,05,29,02,48,13.90
2017,05,29,02,49,13.90
2017,05,29,02,50,13.90
2017,05,29,02,51,13.90
2017,05,29,02,52,13.90
2017,05,29,02,53,13.90
2017,05,29,02,54,13.90
2017,05,29,02,55,13.90
2017,05,29,02,56,13.80
2017,05,29,02,57,13.80
2017,05,29,02,58,13.80
2017,05,29,02,59,13.80
2017,05,29,03,00,13.80
2017,05,29,03,01,13.80
2017,05,29,03,02,13.90
2017,05,29,03,03,13.90
2017,05,29,03,04,13.90
2017,05,29,03,05,13.90
2017,05,29,03,06,13.90
2017,05,29,03,07,13.90
2017,05,29,03,08,13.80
2017,05,29,03,09,13.80
2017,05,29,03,10,13.70
2017,05,29,03,11,13.70
2017,05,29,03,12,13.60
2017,05,29,03,13,13.60
2017,05,29,03,14,13.60
2017,05,29,03,15,13.60
2017,05,29,03,16,13.60
2017,05,29,03,17,13.60
2017,05,29,03,18,13.60
2017,05,29,03,19,13.60
2017,05,29,03,20,13.60
2017,05,29,03,21,13.60
2017,05,29,03,22,13.60
2017,05,29,03,23,13.60
2017,05,29,03,24,13.50
2017,05,29,03,25,13.50
2017,05,29,03,26,13.40
2017,05,29,03,27,13.40
2017,05,29,03,28,13.40
2017,05,29,03,29,13.30
2017,05,29,03,30,13.30
2017,05,29,03,31,13.30
2017,05,29,03,32,13.30
2017,05,29,03,33,13.20
2017,05,29,03,34,13.20
2017,05,29,03,35,13.20
2017,05,29,03,36,13.20
2017,05,29,03,37,13.20
2017,05,29,03,38,13.20
2017,05,29,03,39,13.10
2017,05,29,03,40,13.10
2017,05,29,03,41,13.10
2017,05,29,03,42,13.10
2017,05,29,03,43,13.00
2017,05,29,03,44,13.00
2017,05,29,03,45,12.90
2017,05,29,03,46,12.90
2017,05,29,03,47,12.90
2017,05,29,03,48,12.80
2017,05,29,03,49,12.80
2017,05,29,03,50,12.80
2017,05,29,03,51,12.80
2017,05,29,03,52,12.80
2017,05,29,03,53,12.80
2017,05,29,03,54,12.80
2017,05,29,03,55,12.80
2017,05,29,03,56,12.80
2017,05,29,03,57,12.70
2017,05,29,03,58,12.70
2017,05,29,03,59,12.70
2017,05,29,04,00,12.70
2017,05,29,04,01,12.70
2017,05,29,04,02,12.70
2017,05,29,04,03,12.70
2017,05,29,04,04,12.70
2017,05,29,04,05,12.70
2017,05,29,04,06,12.70
2017,05,29,04,07,12.60
2017,05,29,04,08,12.60
2017,05,29,04,09,12.60
2017,05,29,04,10,12.60
2017,05,29,04,11,12.60
2017,05,29,04,12,12.60
2017,05,29,04,13,12.60
2017,05,29,04,14,12.60
2017,05,29,04,15,12.60
2017,05,29,04,16,12.60
2017,05,29,04,17,12.60
2017,05,29,04,18,12.50
2017,05,29,04,19,12.50
2017,05,29,04,20,12.50
2017,05,29,04,21,12.50
2017,05,29,04,22,12.40
2017,05,29,04,23,12.40
2017,05,29,04,24,12.40
2017,05,29,04,25,12.40
2017,05,29,04,26,12.30
2017,05,29,04,27,12.30
2017,05,29,04,28,12.30
2017,05,29,04,29,12.30
2017,05,29,04,30,12.30
2017,05,29,04,31,12.30
2017,05,29,04,32,12.30
2017,05,29,04,33,12.30
2017,05,29,04,34,12.30
2017,05,29,04,35,12.30
2017,05,29,04,36,12.30
2017,05,29,04,37,12.30
2017,05,29,04,38,12.30
2017,05,29,04,39,12.30
2017,05,29,04,40,12.30
2017,05,29,04,41,12.30
2017,05,29,04,42,12.40
2017,05,29,04,43,12.50
2017,05,29,04,44,12.50
2017,05,29,04,45,12.50
2017,05,29,04,46,12.60
2017,05,29,04,47,12.60
2017,05,29,04,48,12.60
2017,05,29,04,49,12.60
2017,05,29,04,50,12.50
2017,05,29,04,51,12.50
2017,05,29,04,52,12.50
2017,05,29,04,53,12.40
2017,05,29,04,54,12.40
2017,05,29,04,55,12.30
2017,05,29,04,56,12.30
2017,05,29,04,57,12.30
2017,05,29,04,58,12.30
2017,05,29,04,59,12.20
2017,05,29,05,00,12.30
2017,05,29,05,01,12.30
2017,05,29,05,02,12.30
2017,05,29,05,03,12.30
2017,05,29,05,04,12.30
2017,05,29,05,05,12.30
2017,05,29,05,06,12.30
2017,05,29,05,07,12.40
2017,05,29,05,08,12.40
2017,05,29,05,09,12.40
2017,05,29,05,10,12.40
2017,05,29,05,11,12.40
2017,05,29,05,12,12.40
2017,05,29,05,13,12.40
2017,05,29,05,14,12.40
2017,05,29,05,15,12.40
2017,05,29,05,16,12.30
2017,05,29,05,17,12.30
2017,05,29,05,18,12.30
2017,05,29,05,19,12.30
2017,05,29,05,20,12.30
2017,05,29,05,21,12.30
2017,05,29,05,22,12.30
2017,05,29,05,23,12.30
2017,05,29,05,24,12.30
2017,05,29,05,25,12.20
2017,05,29,05,26,12.20
2017,05,29,05,27,12.20
2017,05,29,05,28,12.20
2017,05,29,05,29,12.10
2017,05,29,05,30,12.10
2017,05,29,05,31,12.10
2017,05,29,05,32,12.20
2017,05,29,05,33,12.20
2017,05,29,05,34,12.20
2017,05,29,05,35,12.20
2017,05,29,05,36,12.20
2017,05,29,05,37,12.20
2017,05,29,05,38,12.20
2017,05,29,05,39,12.20
2017,05,29,05,40,12.20
2017,05,29,05,41,12.10
2017,05,29,05,42,12.10
2017,05,29,05,43,12.10
2017,05,29,05,44,12.10
2017,05,29,05,45,12.10
2017,05,29,05,46,12.10
2017,05,29,05,47,12.00
2017,05,29,05,48,12.00
2017,05,29,05,49,12.00
2017,05,29,05,50,12.00
2017,05,29,05,51,12.00
2017,05,29,05,52,12.00
2017,05,29,05,53,12.00
2017,05,29,05,54,12.00
2017,05,29,05,55,12.00
2017,05,29,05,56,12.00
2017,05,29,05,57,12.00
2017,05,29,05,58,12.00
2017,05,29,05,59,12.00
2017,05,29,06,00,12.00
2017,05,29,06,01,12.00
2017,05,29,06,02,12.10
2017,05,29,06,03,12.10
2017,05,29,06,04,12.10
2017,05,29,06,05,12.10
2017,05,29,06,06,12.10
2017,05,29,06,07,12.20
2017,05,29,06,08,12.20
2017,05,29,06,09,12.20
2017,05,29,06,10,12.20
2017,05,29,06,11,12.30
2017,05,29,06,12,12.30
2017,05,29,06,13,12.40
2017,05,29,06,14,12.50
2017,05,29,06,15,12.60
2017,05,29,06,16,12.70
2017,05,29,06,17,12.80
2017,05,29,06,18,12.90
2017,05,29,06,19,13.00
2017,05,29,06,20,13.00
2017,05,29,06,21,13.10
2017,05,29,06,22,13.10
2017,05,29,06,23,13.20
2017,05,29,06,24,13.20
2017,05,29,06,25,13.20
2017,05,29,06,26,13.30
2017,05,29,06,27,13.40
2017,05,29,06,28,13.40
2017,05,29,06,29,13.50
2017,05,29,06,30,13.50
2017,05,29,06,31,13.60
2017,05,29,06,32,13.60
2017,05,29,06,33,13.70
2017,05,29,06,34,13.70
2017,05,29,06,35,13.80
2017,05,29,06,36,13.80
2017,05,29,06,37,13.80
2017,05,29,06,38,13.80
2017,05,29,06,39,13.90
2017,05,29,06,40,14.00
2017,05,29,06,41,14.00
2017,05,29,06,42,14.10
2017,05,29,06,43,14.10
2017,05,29,06,44,14.10
2017,05,29,06,45,14.20
2017,05,29,06,46,14.30
2017,05,29,06,47,14.30
2017,05,29,06,48,14.40
2017,05,29,06,49,14.50
2017,05,29,06,50,14.50
2017,05,29,06,51,14.60
2017,05,29,06,52,14.70
2017,05,29,06,53,14.70
2017,05,29,06,54,14.80
2017,05,29,06,55,14.80
2017,05,29,06,56,14.90
2017,05,29,06,57,15.00
2017,05,29,06,58,15.00
2017,05,29,06,59,15.00
2017,05,29,07,00,15.00
2017,05,29,07,01,15.00
2017,05,29,07,02,15.10
2017,05,29,07,03,15.20
2017,05,29,07,04,15.30
2017,05,29,07,05,15.40
2017,05,29,07,06,15.50
2017,05,29,07,07,15.60
2017,05,29,07,08,15.70
2017,05,29,07,09,15.80
2017,05,29,07,10,15.90
2017,05,29,07,11,15.90
2017,05,29,07,12,16.00
2017,05,29,07,13,16.10
2017,05,29,07,14,16.20
2017,05,29,07,15,16.30
2017,05,29,07,16,16.40
2017,05,29,07,17,16.40
2017,05,29,07,18,16.50
2017,05,29,07,19,16.50
2017,05,29,07,20,16.60
2017,05,29,07,21,16.60
2017,05,29,07,22,16.70
2017,05,29,07,23,16.80
2017,05,29,07,24,16.80
2017,05,29,07,25,16.80
2017,05,29,07,26,16.90
2017,05,29,07,27,16.90
2017,05,29,07,28,17.00
2017,05,29,07,29,17.00
2017,05,29,07,30,17.10
2017,05,29,07,31,17.20
2017,05,29,07,32,17.20
2017,05,29,07,33,17.30
2017,05,29,07,34,17.30
2017,05,29,07,35,17.40
2017,05,29,07,36,17.40
2017,05,29,07,37,17.50
2017,05,29,07,38,17.60
2017,05,29,07,39,17.60
2017,05,29,07,40,17.70
2017,05,29,07,41,17.70
2017,05,29,07,42,17.70
2017,05,29,07,43,17.80
2017,05,29,07,44,17.90
2017,05,29,07,45,17.90
2017,05,29,07,46,18.00
2017,05,29,07,47,18.00
2017,05,29,07,48,18.10
2017,05,29,07,49,18.10
2017,05,29,07,50,18.20
2017,05,29,07,51,18.20
2017,05,29,07,52,18.20
2017,05,29,07,53,18.20
2017,05,29,07,54,18.20
2017,05,29,07,55,18.20
2017,05,29,07,56,18.30
2017,05,29,07,57,18.30
2017,05,29,07,58,18.30
2017,05,29,07,59,18.30
2017,05,29,08,00,18.30
2017,05,29,08,01,18.30
2017,05,29,08,02,18.30
2017,05,29,08,03,18.30
2017,05,29,08,04,18.30
2017,05,29,08,05,18.30
2017,05,29,08,06,18.30
2017,05,29,08,07,18.30
2017,05,29,08,08,18.30
2017,05,29,08,09,18.40
2017,05,29,08,10,18.40
2017,05,29,08,11,18.40
2017,05,29,08,12,18.40
2017,05,29,08,13,18.40
2017,05,29,08,14,18.50
2017,05,29,08,15,18.50
2017,05,29,08,16,18.60
2017,05,29,08,17,18.60
2017,05,29,08,18,18.70
2017,05,29,08,19,18.80
2017,05,29,08,20,18.80
2017,05,29,08,21,18.80
2017,05,29,08,22,18.90
2017,05,29,08,23,18.80
2017,05,29,08,24,18.80
2017,05,29,08,25,18.70
2017,05,29,08,26,18.60
2017,05,29,08,27,18.60
2017,05,29,08,28,18.60
2017,05,29,08,29,18.60
2017,05,29,08,30,18.60
2017,05,29,08,31,18.70
2017,05,29,08,32,18.70
2017,05,29,08,33,18.70
2017,05,29,08,34,18.70
2017,05,29,08,35,18.80
2017,05,29,08,36,18.80
2017,05,29,08,37,18.80
2017,05,29,08,38,18.80
2017,05,29,08,39,18.90
2017,05,29,08,40,18.90
2017,05,29,08,41,19.00
2017,05,29,08,42,19.00
2017,05,29,08,43,18.90
2017,05,29,08,44,18.90
2017,05,29,08,45,18.90
2017,05,29,08,46,18.80
2017,05,29,08,47,18.80
2017,05,29,08,48,18.80
2017,05,29,08,49,18.80
2017,05,29,08,50,18.80
2017,05,29,08,51,18.80
2017,05,29,08,52,18.70
2017,05,29,08,53,18.70
2017,05,29,08,54,18.70
2017,05,29,08,55,18.70
2017,05,29,08,56,18.70
2017,05,29,08,57,18.70
2017,05,29,08,58,18.70
2017,05,29,08,59,18.70
2017,05,29,09,00,18.70
2017,05,29,09,01,18.70
2017,05,29,09,02,18.70
2017,05,29,09,03,18.80
2017,05,29,09,04,18.80
2017,05,29,09,05,18.80
2017,05,29,09,06,18.90
2017,05,29,09,07,18.90
2017,05,29,09,08,18.90
2017,05,29,09,09,18.90
2017,05,29,09,10,19.00
2017,05,29,09,11,19.00
2017,05,29,09,12,19.00
2017,05,29,09,13,19.00
2017,05,29,09,14,19.00
2017,05,29,09,15,19.10
2017,05,29,09,16,19.10
2017,05,29,09,17,19.10
2017,05,29,09,18,19.10
2017,05,29,09,19,19.10
2017,05,29,09,20,19.20
2017,05,29,09,21,19.20
2017,05,29,09,22,19.20
2017,05,29,09,23,19.20
2017,05,29,09,24,19.20
2017,05,29,09,25,19.20
2017,05,29,09,26,19.20
2017,05,29,09,27,19.30
2017,05,29,09,28,19.30
2017,05,29,09,29,19.30
2017,05,29,09,30,19.40
2017,05,29,09,31,19.40
2017,05,29,09,32,19.40
2017,05,29,09,33,19.50
2017,05,29,09,34,19.60
2017,05,29,09,35,19.60
2017,05,29,09,36,19.70
2017,05,29,09,37,19.80
2017,05,29,09,38,19.80
2017,05,29,09,39,19.90
2017,05,29,09,40,20.00
2017,05,29,09,41,20.00
2017,05,29,09,42,20.00
2017,05,29,09,43,20.00
2017,05,29,09,44,19.90
2017,05,29,09,45,19.90
2017,05,29,09,46,19.90
2017,05,29,09,47,19.90
2017,05,29,09,48,20.00
2017,05,29,09,49,20.10
2017,05,29,09,50,20.20
2017,05,29,09,51,20.20
2017,05,29,09,52,20.20
2017,05,29,09,53,20.20
2017,05,29,09,54,20.20
2017,05,29,09,55,20.30
2017,05,29,09,56,20.40
2017,05,29,09,57,20.50
2017,05,29,09,58,20.60
2017,05,29,09,59,20.70
2017,05,29,10,00,20.80
2017,05,29,10,01,20.80
2017,05,29,10,02,20.80
2017,05,29,10,03,20.90
2017,05,29,10,04,20.90
2017,05,29,10,05,21.00
2017,05,29,10,06,20.90
2017,05,29,10,07,20.80
2017,05,29,10,08,20.70
2017,05,29,10,09,20.70
2017,05,29,10,10,20.70
2017,05,29,10,11,20.60
2017,05,29,10,12,20.60
2017,05,29,10,13,20.60
2017,05,29,10,14,20.50
2017,05,29,10,15,20.50
2017,05,29,10,16,20.40
2017,05,29,10,17,20.40
2017,05,29,10,18,20.30
2017,05,29,10,19,20.20
2017,05,29,10,20,20.10
2017,05,29,10,21,20.00
2017,05,29,10,22,19.90
2017,05,29,10,23,19.90
2017,05,29,10,24,20.00
2017,05,29,10,25,20.00
2017,05,29,10,26,20.10
2017,05,29,10,27,20.20
2017,05,29,10,28,20.30
2017,05,29,10,29,20.30
2017,05,29,10,30,20.30
2017,05,29,10,31,20.30
2017,05,29,10,32,20.20
2017,05,29,10,33,20.30
2017,05,29,10,34,20.30
2017,05,29,10,35,20.40
2017,05,29,10,36,20.40
2017,05,29,10,37,20.40
2017,05,29,10,38,20.50
2017,05,29,10,39,20.60
2017,05,29,10,40,20.70
2017,05,29,10,41,20.80
2017,05,29,10,42,20.90
2017,05,29,10,43,20.90
2017,05,29,10,44,20.80
2017,05,29,10,45,20.60
2017,05,29,10,46,20.50
2017,05,29,10,47,20.30
2017,05,29,10,48,20.20
2017,05,29,10,49,20.10
2017,05,29,10,50,20.00
2017,05,29,10,51,20.00
2017,05,29,10,52,20.00
2017,05,29,10,53,20.10
2017,05,29,10,54,20.20
2017,05,29,10,55,20.10
2017,05,29,10,56,20.00
2017,05,29,10,57,20.00
2017,05,29,10,58,19.90
2017,05,29,10,59,19.80
2017,05,29,11,00,19.80
2017,05,29,11,01,19.70
2017,05,29,11,02,19.70
2017,05,29,11,03,19.70
2017,05,29,11,04,19.70
2017,05,29,11,05,19.70
2017,05,29,11,06,19.80
2017,05,29,11,07,19.80
2017,05,29,11,08,19.80
2017,05,29,11,09,19.70
2017,05,29,11,10,19.80
2017,05,29,11,11,19.90
2017,05,29,11,12,19.90
2017,05,29,11,13,20.00
2017,05,29,11,14,20.00
2017,05,29,11,15,20.10
2017,05,29,11,16,20.10
2017,05,29,11,17,20.10
2017,05,29,11,18,20.00
2017,05,29,11,19,19.90
2017,05,29,11,20,19.90
2017,05,29,11,21,19.90
2017,05,29,11,22,19.90
2017,05,29,11,23,19.90
2017,05,29,11,24,20.00
2017,05,29,11,25,19.90
2017,05,29,11,26,19.90
2017,05,29,11,27,19.90
2017,05,29,11,28,19.90
2017,05,29,11,29,19.80
2017,05,29,11,30,19.80
2017,05,29,11,31,19.80
2017,05,29,11,32,19.80
2017,05,29,11,33,19.80
2017,05,29,11,34,19.90
2017,05,29,11,35,20.00
2017,05,29,11,36,20.10
2017,05,29,11,37,20.10
2017,05,29,11,38,20.00
2017,05,29,11,39,19.90
2017,05,29,11,40,19.90
2017,05,29,11,41,19.90
2017,05,29,11,42,19.90
2017,05,29,11,43,20.00
2017,05,29,11,44,20.00
2017,05,29,11,45,20.00
2017,05,29,11,46,20.00
2017,05,29,11,47,19.90
2017,05,29,11,48,19.70
2017,05,29,11,49,19.50
2017,05,29,11,50,19.40
2017,05,29,11,51,19.30
2017,05,29,11,52,19.20
2017,05,29,11,53,19.20
2017,05,29,11,54,19.20
2017,05,29,11,55,19.30
2017,05,29,11,56,19.40
2017,05,29,11,57,19.40
2017,05,29,11,58,19.40
2017,05,29,11,59,19.50
2017,05,29,12,00,19.60
2017,05,29,12,01,19.70
2017,05,29,12,02,19.70
2017,05,29,12,03,19.70
2017,05,29,12,04,19.70
2017,05,29,12,05,19.60
2017,05,29,12,06,19.50
2017,05,29,12,07,19.30
2017,05,29,12,08,19.40
2017,05,29,12,09,19.40
2017,05,29,12,10,19.50
2017,05,29,12,11,19.60
2017,05,29,12,12,19.60
2017,05,29,12,13,19.60
2017,05,29,12,14,19.60
2017,05,29,12,15,19.60
2017,05,29,12,16,19.70
2017,05,29,12,17,19.80
2017,05,29,12,18,19.80
2017,05,29,12,19,19.80
2017,05,29,12,20,19.80
2017,05,29,12,21,19.80
2017,05,29,12,22,19.90
2017,05,29,12,23,19.90
2017,05,29,12,24,19.90
2017,05,29,12,25,19.90
2017,05,29,12,26,20.00
2017,05,29,12,27,20.00
2017,05,29,12,28,20.00
2017,05,29,12,29,20.10
2017,05,29,12,30,20.10
2017,05,29,12,31,20.20
2017,05,29,12,32,20.30
2017,05,29,12,33,20.20
2017,05,29,12,34,20.20
2017,05,29,12,35,20.10
2017,05,29,12,36,20.10
2017,05,29,12,37,20.00
2017,05,29,12,38,19.90
2017,05,29,12,39,19.90
2017,05,29,12,40,19.90
2017,05,29,12,41,19.80
2017,05,29,12,42,19.70
2017,05,29,12,43,19.70
2017,05,29,12,44,19.70
2017,05,29,12,45,19.70
2017,05,29,12,46,19.70
2017,05,29,12,47,19.70
2017,05,29,12,48,19.70
2017,05,29,12,49,19.70
2017,05,29,12,50,19.70
2017,05,29,12,51,19.90
2017,05,29,12,52,19.90
2017,05,29,12,53,20.00
2017,05,29,12,54,20.00
2017,05,29,12,55,20.10
2017,05,29,12,56,20.00
2017,05,29,12,57,19.90
2017,05,29,12,58,19.80
2017,05,29,12,59,19.80
2017,05,29,13,00,19.80
2017,05,29,13,01,19.80
2017,05,29,13,02,19.80
2017,05,29,13,03,19.80
2017,05,29,13,04,19.80
2017,05,29,13,05,19.80
2017,05,29,13,06,19.80
2017,05,29,13,07,19.80
2017,05,29,13,08,19.80
2017,05,29,13,09,19.90
2017,05,29,13,10,19.90
2017,05,29,13,11,19.90
2017,05,29,13,12,19.80
2017,05,29,13,13,19.90
2017,05,29,13,14,20.00
2017,05,29,13,15,20.10
2017,05,29,13,16,20.10
2017,05,29,13,17,20.10
2017,05,29,13,18,20.00
2017,05,29,13,19,20.00
2017,05,29,13,20,20.00
2017,05,29,13,21,19.90
2017,05,29,13,22,20.00
2017,05,29,13,23,20.00
2017,05,29,13,24,20.10
2017,05,29,13,25,20.30
2017,05,29,13,26,20.40
2017,05,29,13,27,20.50
2017,05,29,13,28,20.50
2017,05,29,13,29,20.60
2017,05,29,13,30,20.60
2017,05,29,13,31,20.60
2017,05,29,13,32,20.60
2017,05,29,13,33,20.60
2017,05,29,13,34,20.60
2017,05,29,13,35,20.70
2017,05,29,13,36,20.70
2017,05,29,13,37,20.70
2017,05,29,13,38,20.70
2017,05,29,13,39,20.70
2017,05,29,13,40,20.80
2017,05,29,13,41,20.80
2017,05,29,13,42,20.80
2017,05,29,13,43,20.80
2017,05,29,13,44,20.80
2017,05,29,13,45,20.80
2017,05,29,13,46,20.80
2017,05,29,13,47,20.80
2017,05,29,13,48,20.90
2017,05,29,13,49,20.90
2017,05,29,13,50,21.00
2017,05,29,13,51,21.00
2017,05,29,13,52,20.90
2017,05,29,13,53,20.90
2017,05,29,13,54,21.00
2017,05,29,13,55,21.10
2017,05,29,13,56,21.00
2017,05,29,13,57,20.90
2017,05,29,13,58,20.80
2017,05,29,13,59,20.80
2017,05,29,14,00,20.70
2017,05,29,14,01,20.80
2017,05,29,14,02,20.90
2017,05,29,14,03,20.90
2017,05,29,14,04,21.10
2017,05,29,14,05,21.20
2017,05,29,14,06,21.20
2017,05,29,14,07,21.20
2017,05,29,14,08,21.20
2017,05,29,14,09,21.20
2017,05,29,14,10,21.30
2017,05,29,14,11,21.40
2017,05,29,14,12,21.40
2017,05,29,14,13,21.40
2017,05,29,14,14,21.50
2017,05,29,14,15,21.60
2017,05,29,14,16,21.60
2017,05,29,14,17,21.70
2017,05,29,14,18,21.70
2017,05,29,14,19,21.70
2017,05,29,14,20,21.80
2017,05,29,14,21,21.80
2017,05,29,14,22,21.80
2017,05,29,14,23,21.90
2017,05,29,14,24,22.00
2017,05,29,14,25,22.10
2017,05,29,14,26,22.10
2017,05,29,14,27,22.20
2017,05,29,14,28,22.20
2017,05,29,14,29,22.20
2017,05,29,14,30,22.20
2017,05,29,14,31,22.20
2017,05,29,14,32,22.10
2017,05,29,14,33,22.10
2017,05,29,14,34,22.10
2017,05,29,14,35,22.10
2017,05,29,14,36,22.10
2017,05,29,14,37,22.30
2017,05,29,14,38,22.30
2017,05,29,14,39,22.30
2017,05,29,14,40,22.40
2017,05,29,14,41,22.40
2017,05,29,14,42,22.40
2017,05,29,14,43,22.30
2017,05,29,14,44,22.30
2017,05,29,14,45,22.30
2017,05,29,14,46,22.30
2017,05,29,14,47,22.30
2017,05,29,14,48,22.30
2017,05,29,14,49,22.40
2017,05,29,14,50,22.40
2017,05,29,14,51,22.40
2017,05,29,14,52,22.30
2017,05,29,14,53,22.30
2017,05,29,14,54,22.30
2017,05,29,14,55,22.40
2017,05,29,14,56,22.40
2017,05,29,14,57,22.40
2017,05,29,14,58,22.50
2017,05,29,14,59,22.60
2017,05,29,15,00,22.60
2017,05,29,15,01,22.60
2017,05,29,15,02,22.60
2017,05,29,15,03,22.60
2017,05,29,15,04,22.60
2017,05,29,15,05,22.70
2017,05,29,15,06,22.70
2017,05,29,15,07,22.80
2017,05,29,15,08,22.80
2017,05,29,15,09,22.80
2017,05,29,15,10,22.90
2017,05,29,15,11,22.90
2017,05,29,15,12,23.00
2017,05,29,15,13,23.10
2017,05,29,15,14,23.20
2017,05,29,15,15,23.20
2017,05,29,15,16,23.10
2017,05,29,15,17,23.10
2017,05,29,15,18,23.20
2017,05,29,15,19,23.20
2017,05,29,15,20,23.30
2017,05,29,15,21,23.40
2017,05,29,15,22,23.50
2017,05,29,15,23,23.40
2017,05,29,15,24,23.40
2017,05,29,15,25,23.40
2017,05,29,15,26,23.40
2017,05,29,15,27,23.50
2017,05,29,15,28,23.60
2017,05,29,15,29,23.60
2017,05,29,15,30,23.60
2017,05,29,15,31,23.60
2017,05,29,15,32,23.60
2017,05,29,15,33,23.70
2017,05,29,15,34,23.60
2017,05,29,15,35,23.50
2017,05,29,15,36,23.40
2017,05,29,15,37,23.30
2017,05,29,15,38,23.30
2017,05,29,15,39,23.30
2017,05,29,15,40,23.30
2017,05,29,15,41,23.30
2017,05,29,15,42,23.30
2017,05,29,15,43,23.30
2017,05,29,15,44,23.30
2017,05,29,15,45,23.40
2017,05,29,15,46,23.40
2017,05,29,15,47,23.40
2017,05,29,15,48,23.40
2017,05,29,15,49,23.50
2017,05,29,15,50,23.60
2017,05,29,15,51,23.60
2017,05,29,15,52,23.70
2017,05,29,15,53,23.70
2017,05,29,15,54,23.70
2017,05,29,15,55,23.70
2017,05,29,15,56,23.70
2017,05,29,15,57,23.70
2017,05,29,15,58,23.60
2017,05,29,15,59,23.50
2017,05,29,16,00,23.50
2017,05,29,16,01,23.40
2017,05,29,16,02,23.20
2017,05,29,16,03,23.10
2017,05,29,16,04,22.90
2017,05,29,16,05,22.80
2017,05,29,16,06,22.70
2017,05,29,16,07,22.60
2017,05,29,16,08,22.50
2017,05,29,16,09,22.40
2017,05,29,16,10,22.30
2017,05,29,16,11,22.20
2017,05,29,16,12,22.10
2017,05,29,16,13,22.10
2017,05,29,16,14,22.00
2017,05,29,16,15,22.00
2017,05,29,16,16,21.90
2017,05,29,16,17,21.90
2017,05,29,16,18,21.90
2017,05,29,16,19,21.90
2017,05,29,16,20,21.90
2017,05,29,16,21,22.00
2017,05,29,16,22,22.00
2017,05,29,16,23,22.10
2017,05,29,16,24,22.10
2017,05,29,16,25,22.20
2017,05,29,16,26,22.20
2017,05,29,16,27,22.30
2017,05,29,16,28,22.30
2017,05,29,16,29,22.40
2017,05,29,16,30,22.50
2017,05,29,16,31,22.60
2017,05,29,16,32,22.60
2017,05,29,16,33,22.60
2017,05,29,16,34,22.70
2017,05,29,16,35,22.80
2017,05,29,16,36,22.80
2017,05,29,16,37,22.80
2017,05,29,16,38,22.80
2017,05,29,16,39,22.80
2017,05,29,16,40,22.80
2017,05,29,16,41,22.80
2017,05,29,16,42,22.80
2017,05,29,16,43,22.80
2017,05,29,16,44,22.70
2017,05,29,16,45,22.70
2017,05,29,16,46,22.70
2017,05,29,16,47,22.70
2017,05,29,16,48,22.70
2017,05,29,16,49,22.80
2017,05,29,16,50,22.80
2017,05,29,16,51,22.80
2017,05,29,16,52,22.80
2017,05,29,16,53,22.90
2017,05,29,16,54,22.90
2017,05,29,16,55,22.90
2017,05,29,16,56,23.00
2017,05,29,16,57,23.00
2017,05,29,16,58,23.00
2017,05,29,16,59,23.00
2017,05,29,17,00,23.00
2017,05,29,17,01,23.10
2017,05,29,17,02,23.10
2017,05,29,17,03,23.10
2017,05,29,17,04,23.10
2017,05,29,17,05,23.10
2017,05,29,17,06,23.10
2017,05,29,17,07,23.10
2017,05,29,17,08,23.20
2017,05,29,17,09,23.20
2017,05,29,17,10,23.20
2017,05,29,17,11,23.30
2017,05,29,17,12,23.30
2017,05,29,17,13,23.30
2017,05,29,17,14,23.30
2017,05,29,17,15,23.30
2017,05,29,17,16,23.20
2017,05,29,17,17,23.20
2017,05,29,17,18,23.20
2017,05,29,17,19,23.20